Regional Weather Roundup
Issued by NWS

Home | Current Version | Previous Version | Text Only | Print | Product List | Glossary On
Versions: 1 2 3 4 5 6 7 8 9 10 11 12 13 14 15 16 17 18 19 20 21 22 23 24 25 26 27 28 29 30 31 32 33 34 35 36 37 38 39 40 41 42 43 44 45 46 47 48 49 50
000
ASUS43 KLOT 271310
RWRIL

ILLINOIS REGIONAL WEATHER ROUNDUP
NATIONAL WEATHER SERVICE CHICAGO/ROMEOVILLE IL
700 AM CST FRI FEB 27 2015

NOTE: "FAIR" INDICATES FEW OR NO CLOUDS BELOW 12,000 FEET WITH NO
SIGNIFICANT WEATHER AND/OR OBSTRUCTIONS TO VISIBILITY.

* THESE STATIONS ARE NOT UNDER NWS QUALITY CONTROL. THEY ALSO MAY NOT
  REPORT WEATHER SUCH AS PRECIPITATION OR FOG.

ILZ001-002-007-009-015-016-024-271400-
NORTHWEST ILLINOIS

CITY           SKY/WX    TMP DP  RH WIND       PRES   REMARKS
MOLINE         PTCLDY   -12 -16  82 W7        30.59R WCI -27
STERLING*      PTCLDY   -15 -22  70 CALM      30.56R
SAVANNA*       PTCLDY   -18 -25  72 CALM      30.58R
$$

ILZ003-004-008-010-011-017-018-271400-
NORTH CENTRAL ILLINOIS

CITY           SKY/WX    TMP DP  RH WIND       PRES   REMARKS
ROCKFORD       PTCLDY   -14 -20  74 CALM      30.56R
FREEPORT*      PTCLDY   -12 -17  80 CALM      30.56R
ROCHELLE*      PTCLDY   -18 -22  82 CALM      30.55R
DE KALB*       PTCLDY   -10 -15  80 W7        30.52R WCI -25
PERU*          CLEAR    -10 -15  77 W5        30.57R WCI -21
$$

ILZ005-006-012>014-019>023-271400-
NORTHEAST ILLINOIS

CITY           SKY/WX    TMP DP  RH WIND       PRES   REMARKS
CHICAGO-OHARE  PTCLDY     0 -10  63 NW9       30.52R WCI -15
CHICAGO-MIDWAY PTCLDY     3  -4  72 NW5       30.54R WCI  -6
AURORA         PTCLDY   -12 -18  74 NW6       30.54R WCI -26
LANSING*       PTCLDY   -11 -16  79 SW3       30.54R
JOLIET*        PTCLDY   -11 -15  81 CALM      30.55R
WAUKEGAN       CLEAR     -3 -10  72 W6        30.51R WCI -15
DUPAGE AIRPORT CLEAR     -5 -11  75 CALM      30.52R
KANKAKEE*      PTCLDY   -11 -15  81 W5        30.56R WCI -22
WHEELING       CLEAR      1 -10  60 NW9       30.54R WCI -14
MORRIS*        CLEAR    -11 -15  82 SW3       30.55R
ROMEOVILLE*    PTCLDY    -6 -11  81 CALM      30.54R
NORTHERLY ISL    N/A      8  -1  66 W6          N/A  WCI  -2
$$

LMZ740>746-271400-
SOUTHERN LAKE MICHIGAN

STATION/POSITION SKY/WX   TEMP    WIND        PRES    VSBY  WAVE
                          AIR SEA DIR/SP/G                  HT/PER
                          (F)     (DEG/KT/KT) (MB)    (MI)  (FT/S)
WAUKEGAN HARBOR             1     290/  8/ 12   N/A
HARRISON CRIB               6     290/ 10/ 12   N/A
BURNHAM HARBOR              7     250/  6/  9   N/A
CALUMET HARBOR              5     260/  5/  7 1032.2S
MICHIGAN CITY               6     170/  7/  8   N/A
$$

ILZ025>027-034>036-040-047-049-050-058-095>099-271400-
WEST-CENTRAL ILLINOIS

CITY           SKY/WX    TMP DP  RH WIND       PRES   REMARKS
QUINCY         PTCLDY    -7 -11  83 W3        30.60R
GALESBURG*     LGT SNOW -13 -17  82 W5        30.58R VSB 1   WCI -25
MACOMB*        MOCLDY   -12 -16  85 W5        30.61R WCI -24
JACKSONVILLE*  PTCLDY    -6 -11  79 CALM      30.62R
PITTSFIELD*    PTCLDY    -3  -8  79 W6        30.62R WCI -16
$$

ILZ028>032-037-038-041>044-048-051>054-059>061-271400-
CENTRAL ILLINOIS

CITY           SKY/WX    TMP DP  RH WIND       PRES   REMARKS
PONTIAC        CLEAR     -7 -11  81 W5        30.58R WCI -18
BLOOMINGTON    CLEAR     -7 -11  83 CALM      30.56R
DECATUR        PTCLDY    -2  -7  79 W5        30.58R WCI -12
PEORIA         PTCLDY    -7 -12  79 NW3       30.59R
LACON*         CLEAR    -12 -18  77 CALM      30.59R
LINCOLN*       PTCLDY    -2  -8  78 CALM      30.64R
SPRINGFIELD    PTCLDY   -11 -15  82 W3        30.60R
TAYLORVILLE    PTCLDY    -8 -11  84 W6        30.60R WCI -21
$$

ILZ033-039-045-046-055>057-062-063-271400-
EAST-CENTRAL ILLINOIS

CITY           SKY/WX    TMP DP  RH WIND       PRES   REMARKS
CHAMPAIGN      CLEAR     -6 -10  83 W7        30.56R WCI -20
DANVILLE*      CLEAR     -3  -8  82 W3        30.53R
RANTOUL*       CLEAR     -5 -10  80 W5        30.56R WCI -16
MATTOON        CLEAR     -5 -10  79 NW6       30.56R WCI -18
PARIS*         CLEAR     -4  -8  83 NW3       30.58R
$$

ILZ079-100>102-271400-
SOUTHWEST ILLINOIS

CITY           SKY/WX    TMP DP  RH WIND       PRES   REMARKS
ALTON          CLEAR     -4 -11  71 W7        30.64R WCI -18
BELLEVILLE     CLEAR      3  -3  77 NW3       30.64R
CAHOKIA*       CLEAR      4  -3  73 NW5       30.66R WCI  -5
SPARTA*        CLEAR      5  -2  72 NW6       30.63R WCI  -6
$$

ILZ064>066-069>071-074>076-080>082-084>086-088>090-092>094-271400-
SOUTH-CENTRAL ILLINOIS

CITY           SKY/WX    TMP DP  RH WIND       PRES   REMARKS
CARBONDALE     FLURRIES   7  -2  66 N9        30.63R WCI  -7
CAIRO*         CLEAR     12   4  70 N5        30.62R WCI   4
EFFINGHAM*     PTCLDY    -3 -10  70 CALM      30.61R
MARION         CLEAR      9   1  72 NW9       30.63R WCI  -5
MT. VERNON     CLEAR      3  -6  66 CALM      30.61R
CENTRALIA*     CLEAR      3  -4  72 NW5       30.62R WCI  -6
SALEM*         CLEAR      2  -5  72 NW5       30.61R WCI  -7
METROPOLIS*    CLEAR     10   6  85 CALM      30.59R
$$

ILZ067-068-072-073-078-083-087-091-271400-
SOUTHEAST ILLINOIS

CITY           SKY/WX    TMP DP  RH WIND       PRES   REMARKS
LAWRENCEVILLE  PTCLDY     8   1  73 NW7       30.59R WCI  -3
FLORA*         PTCLDY     0  -5  78 NW8       30.61R WCI -14
FAIRFIELD*     CLEAR      3  -3  77 CALM      30.60R
HARRISBURG*    FLURRIES  10   5  79 NW6       30.63R WCI   1
ROBINSON*      CLOUDY     8   3  78 NW6       30.60R WCI  -2
CARMI*         FLURRIES  10   8  89 NW9       30.60R WCI  -3
$$

ABBREVIATIONS USED IN REMARKS
   TC - TEMPERATURE IN CELSIUS
  WCI - WIND CHILL INDEX
   HX - HEAT INDEX
  VSB - VISIBILITY
$$



USA.gov is the U.S. government's official web portal to all federal, state and local government web resources and services.